When you browse on this site, cookies collect data to enhance your experience and personalize the content and advertising you see.
Visit our Privacy Policy to learn more. By continuing to use the site, you agree to this use of cookies and data.
  • In Austria
  • List of Countries
  • For 7 days
  • Water Temperature
  • Weather Map
  • News
  • Weather Widgets
  • user-avatar
    Login

    Hourly Weather Namibe

    Today, 2 June, Tuesday

    Time Temperature Precipitation Wind Pressure Humidity
    00:00 +25°C° 0 mm 1 mps 760 mmHg 71%
    01:00 +25°C° 0 mm 1 mps 760 mmHg 69%
    02:00 +25°C° 0 mm 2 mps 760 mmHg 68%
    03:00 +25°C° 0 mm 2 mps 760 mmHg 68%
    04:00 +24°C° 0 mm 2 mps 759 mmHg 67%
    05:00 +25°C° 0 mm 2 mps 759 mmHg 64%
    06:00 +25°C° 0 mm 2 mps 760 mmHg 60%
    07:00 +26°C° 0 mm 2 mps 760 mmHg 56%
    08:00 +28°C° 0 mm 2 mps 760 mmHg 49%
    09:00 +30°C° 0 mm 2 mps 760 mmHg 42%
    10:00 +32°C° 0 mm 2 mps 760 mmHg 34%
    11:00 +34°C° 0 mm 3 mps 759 mmHg 35%
    12:00 +34°C° 0 mm 3 mps 759 mmHg 35%
    13:00 +34°C° 0 mm 4 mps 758 mmHg 36%
    14:00 +33°C° 0 mm 4 mps 757 mmHg 39%
    15:00 +33°C° 0 mm 4 mps 757 mmHg 42%
    16:00 +32°C° 0 mm 4 mps 756 mmHg 45%
    17:00 +29°C° 0 mm 4 mps 757 mmHg 52%
    18:00 +27°C° 0 mm 3 mps 757 mmHg 58%
    19:00 +26°C° 0 mm 3 mps 758 mmHg 65%
    20:00 +26°C° 0 mm 2 mps 758 mmHg 66%
    21:00 +25°C° 0 mm 2 mps 758 mmHg 66%
    22:00 +25°C° 0 mm 2 mps 759 mmHg 67%
    23:00 +25°C° 0 mm 2 mps 759 mmHg 65%

    Tomorrow, 3 June, Wednesday

    Time Temperature Precipitation Wind Pressure Humidity
    00:00 +25°C° 0 mm 2 mps 759 mmHg 63%
    01:00 +25°C° 0 mm 2 mps 759 mmHg 61%
    02:00 +24°C° 0 mm 2 mps 758 mmHg 62%
    03:00 +24°C° 0 mm 2 mps 758 mmHg 62%
    04:00 +23°C° 0 mm 2 mps 758 mmHg 62%
    05:00 +23°C° 0 mm 2 mps 758 mmHg 62%
    06:00 +23°C° 0 mm 1 mps 758 mmHg 62%
    07:00 +23°C° 0 mm 1 mps 758 mmHg 61%
    08:00 +25°C° 0 mm 2 mps 758 mmHg 54%
    09:00 +28°C° 0 mm 2 mps 759 mmHg 47%
    10:00 +30°C° 0 mm 2 mps 759 mmHg 39%
    11:00 +30°C° 0 mm 3 mps 758 mmHg 39%
    12:00 +31°C° 0 mm 3 mps 758 mmHg 39%
    13:00 +32°C° 0 mm 4 mps 757 mmHg 39%
    14:00 +30°C° 0 mm 4 mps 757 mmHg 42%
    15:00 +30°C° 0 mm 4 mps 757 mmHg 45%
    16:00 +29°C° 0 mm 4 mps 756 mmHg 48%
    17:00 +27°C° 0 mm 3 mps 757 mmHg 57%
    18:00 +26°C° 0 mm 3 mps 757 mmHg 65%
    19:00 +24°C° 0 mm 2 mps 758 mmHg 74%
    20:00 +24°C° 0 mm 2 mps 758 mmHg 75%
    21:00 +24°C° 0 mm 1 mps 759 mmHg 76%
    22:00 +24°C° 0 mm 1 mps 759 mmHg 77%
    23:00 +24°C° 0 mm 1 mps 759 mmHg 77%

    Day after tomorrow, 4 June, Thursday

    Time Temperature Precipitation Wind Pressure Humidity
    00:00 +23°C° 0 mm 1 mps 759 mmHg 77%
    01:00 +23°C° 0 mm 1 mps 759 mmHg 77%
    02:00 +23°C° 0 mm 1 mps 759 mmHg 77%
    03:00 +23°C° 0 mm 2 mps 759 mmHg 78%
    04:00 +21°C° 0 mm 2 mps 758 mmHg 79%
    05:00 +22°C° 0 mm 1 mps 759 mmHg 79%
    06:00 +22°C° 0 mm 1 mps 759 mmHg 79%
    07:00 +22°C° 0 mm 1 mps 759 mmHg 80%
    08:00 +24°C° 0 mm 1 mps 760 mmHg 70%
    09:00 +26°C° 0 mm 1 mps 760 mmHg 60%
    10:00 +28°C° 0 mm 1 mps 760 mmHg 50%
    11:00 +29°C° 0 mm 2 mps 759 mmHg 49%
    12:00 +30°C° 0 mm 3 mps 759 mmHg 49%
    13:00 +30°C° 0 mm 4 mps 758 mmHg 49%
    14:00 +30°C° 0 mm 4 mps 758 mmHg 51%
    15:00 +29°C° 0 mm 4 mps 758 mmHg 54%
    16:00 +28°C° 0 mm 4 mps 757 mmHg 56%
    17:00 +27°C° 0 mm 3 mps 758 mmHg 63%
    18:00 +26°C° 0 mm 3 mps 758 mmHg 70%
    19:00 +25°C° 0 mm 2 mps 759 mmHg 76%
    20:00 +24°C° 0 mm 3 mps 759 mmHg 77%
    21:00 +24°C° 0 mm 3 mps 760 mmHg 78%
    22:00 +24°C° 0 mm 3 mps 760 mmHg 79%
    23:00 +24°C° 0 mm 3 mps 760 mmHg 74%

    5 June, Friday

    Time Temperature Precipitation Wind Pressure Humidity
    00:00 +24°C° 0 mm 2 mps 760 mmHg 69%
    01:00 +24°C° 0 mm 2 mps 759 mmHg 64%
    02:00 +24°C° 0 mm 3 mps 759 mmHg 65%
    03:00 +24°C° 0 mm 3 mps 759 mmHg 65%
    04:00 +23°C° 0 mm 4 mps 759 mmHg 65%
    05:00 +24°C° 0 mm 3 mps 759 mmHg 65%
    06:00 +24°C° 0 mm 2 mps 759 mmHg 66%
    07:00 +24°C° 0 mm 2 mps 759 mmHg 66%
    08:00 +26°C° 0 mm 2 mps 759 mmHg 55%
    09:00 +29°C° 0 mm 2 mps 759 mmHg 44%
    10:00 +33°C° 0 mm 3 mps 759 mmHg 33%
    11:00 +33°C° 0 mm 3 mps 759 mmHg 35%
    12:00 +33°C° 0 mm 4 mps 758 mmHg 38%
    13:00 +33°C° 0 mm 4 mps 758 mmHg 41%
    14:00 +32°C° 0 mm 4 mps 758 mmHg 43%
    15:00 +30°C° 0 mm 4 mps 758 mmHg 46%
    16:00 +29°C° 0 mm 4 mps 757 mmHg 49%
    17:00 +28°C° 0 mm 4 mps 758 mmHg 55%
    18:00 +26°C° 0 mm 3 mps 758 mmHg 62%
    19:00 +25°C° 0 mm 3 mps 759 mmHg 68%
    20:00 +25°C° 0 mm 3 mps 759 mmHg 66%
    21:00 +24°C° 0 mm 2 mps 760 mmHg 64%
    22:00 +24°C° 0 mm 2 mps 760 mmHg 63%
    23:00 +24°C° 0 mm 2 mps 760 mmHg 61%

    6 June, Saturday

    Time Temperature Precipitation Wind Pressure Humidity
    00:00 +24°C° 0 mm 2 mps 760 mmHg 59%
    01:00 +24°C° 0 mm 2 mps 759 mmHg 56%
    02:00 +24°C° 0 mm 2 mps 759 mmHg 57%
    03:00 +24°C° 0 mm 2 mps 759 mmHg 57%
    04:00 +24°C° 0 mm 2 mps 759 mmHg 57%
    05:00 +24°C° 0 mm 2 mps 759 mmHg 57%
    06:00 +24°C° 0 mm 2 mps 759 mmHg 56%
    07:00 +24°C° 0 mm 2 mps 760 mmHg 56%
    08:00 +27°C° 0 mm 2 mps 760 mmHg 48%
    09:00 +29°C° 0 mm 2 mps 760 mmHg 40%
    10:00 +32°C° 0 mm 2 mps 760 mmHg 32%
    11:00 +34°C° 0 mm 2 mps 759 mmHg 31%
    12:00 +35°C° 0 mm 3 mps 758 mmHg 31%
    13:00 +36°C° 0 mm 4 mps 758 mmHg 30%
    14:00 +35°C° 0 mm 4 mps 757 mmHg 33%
    15:00 +34°C° 0 mm 4 mps 757 mmHg 36%
    16:00 +33°C° 0 mm 4 mps 757 mmHg 38%
    17:00 +30°C° 0 mm 4 mps 757 mmHg 47%
    18:00 +27°C° 0 mm 3 mps 757 mmHg 56%
    19:00 +25°C° 0 mm 2 mps 758 mmHg 65%
    20:00 +25°C° 0 mm 2 mps 758 mmHg 64%
    21:00 +25°C° 0 mm 2 mps 759 mmHg 63%
    22:00 +25°C° 0 mm 2 mps 759 mmHg 62%
    23:00 +25°C° 0 mm 2 mps 759 mmHg 60%

    7 June, Sunday

    Time Temperature Precipitation Wind Pressure Humidity
    00:00 +25°C° 0 mm 2 mps 759 mmHg 57%
    01:00 +25°C° 0 mm 2 mps 759 mmHg 54%
    02:00 +24°C° 0 mm 2 mps 759 mmHg 54%
    03:00 +24°C° 0 mm 2 mps 759 mmHg 54%
    04:00 +24°C° 0 mm 2 mps 758 mmHg 54%
    05:00 +24°C° 0 mm 2 mps 759 mmHg 53%
    06:00 +24°C° 0 mm 2 mps 759 mmHg 52%
    07:00 +24°C° 0 mm 2 mps 759 mmHg 51%
    08:00 +27°C° 0 mm 2 mps 759 mmHg 43%
    09:00 +29°C° 0 mm 2 mps 759 mmHg 36%
    10:00 +32°C° 0 mm 2 mps 759 mmHg 28%
    11:00 +33°C° 0 mm 3 mps 759 mmHg 30%
    12:00 +33°C° 0 mm 3 mps 758 mmHg 32%
    13:00 +33°C° 0 mm 4 mps 757 mmHg 34%
    14:00 +32°C° 0 mm 4 mps 757 mmHg 37%
    15:00 +30°C° 0 mm 4 mps 757 mmHg 41%
    16:00 +29°C° 0 mm 4 mps 757 mmHg 44%
    17:00 +28°C° 0 mm 3 mps 757 mmHg 52%
    18:00 +26°C° 0 mm 3 mps 758 mmHg 61%
    19:00 +25°C° 0 mm 2 mps 758 mmHg 70%
    20:00 +24°C° 0 mm 2 mps 759 mmHg 70%
    21:00 +24°C° 0 mm 2 mps 759 mmHg 71%
    22:00 +24°C° 0 mm 2 mps 759 mmHg 71%
    23:00 +24°C° 0 mm 2 mps 759 mmHg 67%
    Show more